Location: Newark
(54.0500°N, 12.8333°E)
Time: 23:51:19
(UTC+00:00)

Vanguard 3 - Visible Passes

Search period start: 18 January 2020 00:00
Search period end: 28 January 2020 00:00
Orbit: 508 x 3263 km, 33.3° (Epoch: 18 January)

Date Brightness Start Highest point End Pass type
(mag) Time Alt. Az. Time Alt. Az. Time Alt. Az.
18 Jan 11.0 16:06:11 10° SSE 16:09:43 11° SE 16:13:04 10° SE visible
18 Jan 10.3 18:10:12 10° SSW 18:22:04 23° SSE 18:26:50 19° SE visible
18 Jan 10.3 20:22:47 10° SW 20:31:24 24° SSW 20:31:24 24° SSW visible
19 Jan 10.7 16:56:18 10° S 17:07:13 19° SSE 17:16:14 10° ESE visible
19 Jan 10.1 19:06:47 10° SW 19:19:48 27° S 19:21:38 27° SSE visible
19 Jan 10.7 21:21:15 10° WSW 21:26:12 19° SW 21:26:12 19° SW visible
20 Jan 10.4 17:51:28 10° SSW 18:04:57 26° SSE 18:11:51 18° SE visible
20 Jan 10.2 20:04:36 10° SW 20:16:25 29° SSW 20:16:25 29° SSW visible
20 Jan 11.0 22:20:34 10° WSW 22:20:58 11° WSW 22:20:58 11° WSW visible
21 Jan 10.7 16:37:15 10° SSW 16:49:56 22° SSE 17:00:27 10° ESE visible
21 Jan 10.1 18:48:26 10° SW 19:02:45 30° S 19:06:37 27° SSE visible
21 Jan 10.5 21:03:16 10° WSW 21:11:10 23° SW 21:11:10 23° SW visible
22 Jan 10.4 17:32:59 10° SW 17:47:42 29° SSE 17:56:48 16° ESE visible
22 Jan 10.1 19:46:28 10° WSW 20:00:26 31° S 20:01:22 31° S visible
22 Jan 10.9 22:02:47 10° WSW 22:05:55 15° WSW 22:05:55 15° WSW visible
23 Jan 10.8 16:18:35 10° SSW 16:32:32 25° SSE 16:44:21 10° ESE visible
23 Jan 10.2 18:30:12 10° SW 18:45:33 33° S 18:51:32 25° SE visible
23 Jan 10.4 20:45:17 10° WSW 20:56:06 26° SSW 20:56:06 26° SSW visible
24 Jan 10.6 17:14:43 10° SW 17:30:20 31° SSE 17:41:43 13° ESE visible
24 Jan 10.1 19:28:24 10° WSW 19:43:18 32° S 19:46:17 30° S visible
24 Jan 10.8 21:44:59 10° WSW 21:50:50 18° SW 21:50:50 18° SW visible
25 Jan 10.9 16:00:14 10° SSW 16:15:01 28° SSE 16:28:00 10° ESE visible
25 Jan 10.3 18:12:08 10° SW 18:28:15 34° S 18:36:27 22° SE visible
25 Jan 10.3 20:27:21 10° WSW 20:40:44 28° SSW 20:41:01 28° SSW visible
26 Jan 10.7 16:56:39 10° SW 17:12:51 34° SSE 17:26:21 10° ESE visible
26 Jan 10.2 19:10:26 10° WSW 19:26:02 33° SSW 19:31:12 28° SSE visible
26 Jan 10.7 21:27:14 10° WSW 21:35:46 20° SW 21:35:46 20° SW visible
27 Jan 10.5 17:54:13 10° WSW 18:10:49 36° S 18:21:24 17° SE visible
27 Jan 10.4 20:09:29 10° WSW 20:23:29 28° SSW 20:25:58 27° SSW visible
27 Jan 11.1 22:29:54 10° WSW 22:30:32 10° WSW 22:30:32 10° WSW visible
